Other Public Products
Issued by NWS Charleston, SC

Current Version | Previous Version | Graphics & Text | Print | Product List | Glossary On
Versions: 1 2 3 4 5 6 7 8 9 10 11 12 13 14 15 16 17 18 19 20 21 22 23 24 25 26 27 28 29 30 31 32 33 34 35 36 37 38 39 40 41 42 43 44 45 46 47 48 49 50
557 FPUS82 KCHS 291527 OPUCHS TEST...KCHS/KSAV Gateway Observations...TEST National Weather Service Charleston SC 1100 AM EDT SAT APR 29 2017 NOTE: "fair" indicates few or no clouds below 12,000 feet with no significant weather and/or obstructions to visibility. SCZ050-WAZ558-NCZ071-TXZ119-213-PAZ071-DCZ001-FLZ074-172-MI076- NYZ176-178-MAZ016-IL014-TNZ027-NJZ106-GAZ044-MD014-291600- ...Gateway Observations for Charleston International... CITY SKY/WX TMP DP RH WIND PRES REMARKS Chas Airport MOSUNNY 80 70 71 SW12 30.23F Seattle PTSUNNY 45 40 82 SE5 30.29S Charlotte PTSUNNY 78 69 73 S7 30.21S Dallas DFW CLOUDY 83 71 67 S26G36 29.55R Dallas Love CLOUDY 82 70 66 S21G32 29.57R Philladelphia PTSUNNY 77 65 66 SW12 30.03F Wash National CLOUDY 81 63 54 W9 30.10F Baltimore CLOUDY 75 65 70 SW9 30.07F Miami PTSUNNY 84 68 58 E17 30.15R Detroit CLOUDY 47 35 63 E9 30.17R Newark PTSUNNY 78 64 61 W20 29.98F Laguardia CLOUDY 79 64 60 W12G20 29.99F J F K PTSUNNY 73 68 84 SW10 30.01F Boston Logan PTSUNNY 77 53 43 SW13 29.91F Ft. Lauderdale PTSUNNY 83 70 64 E21 30.15R Chicago O`Hare CLOUDY 46 33 60 NE24G32 30.13F Chicago Midway CLOUDY 46 37 71 N21G36 30.12F Houston Bush CLOUDY 82 74 76 S24G33 29.68F HAZE Houston Hobby CLOUDY 81 75 82 S17G31 29.67F Nashville PTSUNNY 80 68 66 S8 30.02S Atlanta MOSUNNY 79 67 66 S9 30.16S $$ GAZ044-118-TXZ119-213-NCZ071-DCZ001-MDZ014-506-PAZ021-071-NJZ106- NYZ176-178-MAZ106-OHZ011-021-055-MIZ076-KYZ091-ILZ014-INZ047- MNZ060-ONZ431-291600- ...Gateway Observations for Savannah International... CITY SKY/WX TMP DP RH WIND PRES REMARKS Savannah Arpt PTSUNNY 85 69 58 S14 30.21S Atlanta MOSUNNY 79 67 66 S9 30.16S Charlotte PTSUNNY 78 69 73 S7 30.21S Dallas DFW CLOUDY 83 71 67 S26G36 29.55R Houston Bush CLOUDY 82 74 76 S24G33 29.68F HAZE Wash National CLOUDY 81 63 54 W9 30.10F Wash Dulles CLOUDY 78 62 57 SW5 30.09F Baltimore CLOUDY 75 65 70 SW9 30.07F Philadelphia PTSUNNY 77 65 66 SW12 30.03F Newark PTSUNNY 78 64 61 W20 29.98F Laguardia CLOUDY 79 64 60 W12G20 29.99F J F K PTSUNNY 73 68 84 SW10 30.01F Boston PTSUNNY 77 53 43 SW13 29.91F Pittsburg CLOUDY 69 64 84 W8 30.08S Akron LGT RAIN 58 54 86 NE6 30.10S FOG Cleveland CLOUDY 48 43 82 N13 30.19R HAZE Cincinnati CLOUDY 62 62 100 E5 30.09S Columbus TSTM 61 61 100 S9 30.10F Detroit CLOUDY 47 35 63 E9 30.17R Chicago O`Hare CLOUDY 46 33 60 NE24G32 30.13F Minneapolis PTSUNNY 45 24 43 E14 30.31R Indianapolis LGT RAIN 58 57 97 N10 30.05F FOG Toronto Canada PTSUNNY 48 32 53 NW9 30.11F $$

USA.gov is the U.S. government's official web portal to all federal, state and local government web resources and services.